• în Republica Moldova
  • Lista ţărilor
  • Pe 7 zile
  • Temperatura apei
  • Hartă satelitară
  • Meteo pe hartă
  • Widget-uri
  • user-avatar
    Intrare

    Meteo pe oră la Naftalan

    Astăzi, 26 Iulie, Miercuri

    Timp Temperatura Precipitaţii Vânt Presiune Umiditate
    00:00 +28°C° 0 mm 3 m/s 756 mmHg 62%
    01:00 +27°C° 0 mm 3 m/s 756 mmHg 63%
    02:00 +27°C° 0 mm 3 m/s 756 mmHg 63%
    03:00 +27°C° 0 mm 3 m/s 756 mmHg 63%
    04:00 +27°C° 0 mm 3 m/s 756 mmHg 61%
    05:00 +28°C° 0 mm 3 m/s 756 mmHg 59%
    06:00 +28°C° 0 mm 3 m/s 756 mmHg 57%
    07:00 +30°C° 0 mm 3 m/s 757 mmHg 51%
    08:00 +32°C° 0 mm 2 m/s 757 mmHg 44%
    09:00 +35°C° 0 mm 2 m/s 757 mmHg 38%
    10:00 +36°C° 0 mm 3 m/s 757 mmHg 35%
    11:00 +37°C° 0 mm 3 m/s 756 mmHg 31%
    12:00 +39°C° 0 mm 3 m/s 756 mmHg 28%
    13:00 +40°C° 0 mm 4 m/s 756 mmHg 28%
    14:00 +40°C° 0 mm 5 m/s 756 mmHg 29%
    15:00 +40°C° 0 mm 5 m/s 756 mmHg 29%
    16:00 +37°C° 0 mm 5 m/s 756 mmHg 32%
    17:00 +36°C° 0 mm 4 m/s 756 mmHg 35%
    18:00 +35°C° 0 mm 4 m/s 756 mmHg 38%
    19:00 +33°C° 0 mm 4 m/s 757 mmHg 42%
    20:00 +31°C° 0 mm 3 m/s 757 mmHg 47%
    21:00 +29°C° 0 mm 3 m/s 757 mmHg 51%
    22:00 +29°C° 0 mm 2 m/s 758 mmHg 51%
    23:00 +29°C° 0 mm 2 m/s 758 mmHg 51%

    Mâine, 27 Iulie, Joi

    Timp Temperatura Precipitaţii Vânt Presiune Umiditate
    00:00 +28°C° 0 mm 2 m/s 758 mmHg 51%
    01:00 +28°C° 0 mm 2 m/s 758 mmHg 51%
    02:00 +28°C° 0 mm 2 m/s 758 mmHg 51%
    03:00 +28°C° 0 mm 1 m/s 758 mmHg 51%
    04:00 +28°C° 0 mm 2 m/s 758 mmHg 49%
    05:00 +29°C° 0 mm 2 m/s 758 mmHg 47%
    06:00 +29°C° 0 mm 3 m/s 758 mmHg 45%
    07:00 +31°C° 0 mm 3 m/s 758 mmHg 40%
    08:00 +34°C° 0 mm 2 m/s 759 mmHg 35%
    09:00 +36°C° 0 mm 2 m/s 759 mmHg 30%
    10:00 +38°C° 0 mm 3 m/s 758 mmHg 27%
    11:00 +39°C° 0 mm 3 m/s 758 mmHg 25%
    12:00 +40°C° 0 mm 3 m/s 758 mmHg 22%
    13:00 +41°C° 0 mm 4 m/s 758 mmHg 22%
    14:00 +42°C° 0 mm 4 m/s 757 mmHg 22%
    15:00 +42°C° 0 mm 5 m/s 757 mmHg 22%
    16:00 +41°C° 0 mm 4 m/s 757 mmHg 24%
    17:00 +38°C° 0 mm 4 m/s 757 mmHg 26%
    18:00 +37°C° 0 mm 4 m/s 757 mmHg 28%
    19:00 +35°C° 0 mm 3 m/s 758 mmHg 31%
    20:00 +34°C° 0 mm 3 m/s 758 mmHg 34%
    21:00 +31°C° 0 mm 2 m/s 758 mmHg 37%
    22:00 +31°C° 0 mm 2 m/s 758 mmHg 37%
    23:00 +30°C° 0 mm 2 m/s 758 mmHg 38%

    Poimâine, 28 Iulie, Vineri

    Timp Temperatura Precipitaţii Vânt Presiune Umiditate
    00:00 +30°C° 0 mm 1 m/s 758 mmHg 38%
    01:00 +29°C° 0 mm 1 m/s 758 mmHg 39%
    02:00 +29°C° 0 mm 1 m/s 758 mmHg 40%
    03:00 +29°C° 0 mm 1 m/s 758 mmHg 42%
    04:00 +29°C° 0 mm 1 m/s 758 mmHg 41%
    05:00 +28°C° 0 mm 0 m/s 758 mmHg 40%
    06:00 +29°C° 0 mm 0 m/s 758 mmHg 39%
    07:00 +33°C° 0 mm 1 m/s 758 mmHg 34%
    08:00 +35°C° 0 mm 1 m/s 758 mmHg 30%
    09:00 +37°C° 0 mm 1 m/s 758 mmHg 26%
    10:00 +39°C° 0 mm 2 m/s 757 mmHg 24%
    11:00 +40°C° 0 mm 3 m/s 757 mmHg 22%
    12:00 +43°C° 0 mm 4 m/s 757 mmHg 20%
    13:00 +43°C° 0 mm 4 m/s 756 mmHg 20%
    14:00 +43°C° 0 mm 5 m/s 756 mmHg 21%
    15:00 +43°C° 0 mm 5 m/s 756 mmHg 21%
    16:00 +41°C° 0 mm 5 m/s 756 mmHg 25%
    17:00 +39°C° 0 mm 5 m/s 756 mmHg 29%
    18:00 +36°C° 0 mm 5 m/s 756 mmHg 34%
    19:00 +35°C° 0 mm 5 m/s 756 mmHg 41%
    20:00 +33°C° 0 mm 5 m/s 756 mmHg 48%
    21:00 +32°C° 0 mm 4 m/s 757 mmHg 56%
    22:00 +30°C° 0 mm 4 m/s 757 mmHg 59%
    23:00 +30°C° 0 mm 3 m/s 757 mmHg 61%

    29 Iulie, Sâmbătă

    Timp Temperatura Precipitaţii Vânt Presiune Umiditate
    00:00 +29°C° 0 mm 2 m/s 756 mmHg 64%
    01:00 +29°C° 0 mm 2 m/s 756 mmHg 65%
    02:00 +29°C° 0 mm 1 m/s 756 mmHg 66%
    03:00 +28°C° 0 mm 1 m/s 756 mmHg 66%
    04:00 +29°C° 0 mm 1 m/s 757 mmHg 64%
    05:00 +30°C° 0 mm 1 m/s 757 mmHg 61%
    06:00 +30°C° 0 mm 1 m/s 757 mmHg 58%
    07:00 +32°C° 0 mm 1 m/s 757 mmHg 51%
    08:00 +34°C° 0 mm 1 m/s 757 mmHg 43%
    09:00 +37°C° 0 mm 2 m/s 757 mmHg 36%
    10:00 +39°C° 0 mm 2 m/s 757 mmHg 32%
    11:00 +41°C° 0 mm 2 m/s 757 mmHg 28%
    12:00 +43°C° 0 mm 3 m/s 756 mmHg 24%
    13:00 +44°C° 0 mm 3 m/s 756 mmHg 24%
    14:00 +44°C° 0 mm 4 m/s 756 mmHg 23%
    15:00 +46°C° 0 mm 5 m/s 755 mmHg 23%
    16:00 +43°C° 0 mm 5 m/s 756 mmHg 28%
    17:00 +41°C° 0 mm 5 m/s 756 mmHg 32%
    18:00 +39°C° 0 mm 5 m/s 756 mmHg 37%
    19:00 +37°C° 0 mm 4 m/s 756 mmHg 42%
    20:00 +35°C° 0 mm 4 m/s 757 mmHg 47%
    21:00 +34°C° 0 mm 3 m/s 757 mmHg 52%
    22:00 +33°C° 0 mm 3 m/s 757 mmHg 53%
    23:00 +33°C° 0 mm 3 m/s 758 mmHg 54%

    30 Iulie, Duminică

    Timp Temperatura Precipitaţii Vânt Presiune Umiditate
    00:00 +31°C° 0 mm 2 m/s 758 mmHg 55%
    01:00 +31°C° 0 mm 3 m/s 758 mmHg 54%
    02:00 +31°C° 0 mm 3 m/s 759 mmHg 53%
    03:00 +32°C° 0 mm 4 m/s 759 mmHg 53%
    04:00 +32°C° 0 mm 4 m/s 760 mmHg 51%
    05:00 +33°C° 0 mm 5 m/s 760 mmHg 49%
    06:00 +33°C° 0 mm 5 m/s 761 mmHg 47%
    07:00 +35°C° 0 mm 5 m/s 761 mmHg 42%
    08:00 +36°C° 0 mm 5 m/s 762 mmHg 38%
    09:00 +39°C° 0 mm 5 m/s 762 mmHg 33%
    10:00 +40°C° 0 mm 6 m/s 762 mmHg 31%
    11:00 +41°C° 0 mm 7 m/s 762 mmHg 30%
    12:00 +43°C° 0 mm 8 m/s 762 mmHg 28%
    13:00 +42°C° 0 mm 9 m/s 762 mmHg 29%
    14:00 +42°C° 0 mm 10 m/s 762 mmHg 31%
    15:00 +40°C° 0 mm 10 m/s 762 mmHg 32%
    16:00 +38°C° 0 mm 9 m/s 762 mmHg 34%
    17:00 +37°C° 0 mm 9 m/s 762 mmHg 36%
    18:00 +34°C° 0 mm 8 m/s 762 mmHg 38%
    19:00 +33°C° 0 mm 7 m/s 763 mmHg 42%
    20:00 +32°C° 0 mm 6 m/s 763 mmHg 46%
    21:00 +30°C° 0 mm 5 m/s 764 mmHg 50%
    22:00 +30°C° 0 mm 5 m/s 764 mmHg 50%
    23:00 +30°C° 0 mm 5 m/s 764 mmHg 51%

    31 Iulie, Luni

    Timp Temperatura Precipitaţii Vânt Presiune Umiditate
    00:00 +29°C° 0 mm 4 m/s 764 mmHg 51%
    01:00 +29°C° 0 mm 4 m/s 764 mmHg 50%
    02:00 +29°C° 0 mm 4 m/s 764 mmHg 48%
    03:00 +29°C° 0 mm 4 m/s 764 mmHg 47%
    04:00 +29°C° 0 mm 4 m/s 765 mmHg 45%
    05:00 +29°C° 0 mm 4 m/s 765 mmHg 44%
    06:00 +30°C° 0 mm 3 m/s 765 mmHg 42%
    07:00 +33°C° 0 mm 4 m/s 766 mmHg 37%
    08:00 +34°C° 0 mm 4 m/s 766 mmHg 32%
    09:00 +36°C° 0 mm 4 m/s 766 mmHg 27%
    10:00 +37°C° 0 mm 5 m/s 766 mmHg 26%
    11:00 +39°C° 0 mm 6 m/s 765 mmHg 25%
    12:00 +40°C° 0 mm 6 m/s 765 mmHg 24%
    13:00 +39°C° 0 mm 7 m/s 765 mmHg 25%
    14:00 +39°C° 0 mm 7 m/s 764 mmHg 27%
    15:00 +38°C° 0 mm 7 m/s 764 mmHg 28%
    16:00 +36°C° 0 mm 6 m/s 764 mmHg 31%
    17:00 +35°C° 0 mm 5 m/s 764 mmHg 34%
    18:00 +34°C° 0 mm 5 m/s 765 mmHg 38%
    19:00 +33°C° 0 mm 4 m/s 765 mmHg 43%
    20:00 +30°C° 0 mm 3 m/s 765 mmHg 48%
    21:00 +29°C° 0 mm 2 m/s 766 mmHg 53%
    22:00 +29°C° 0 mm 2 m/s 766 mmHg 54%
    23:00 +28°C° 0 mm 2 m/s 766 mmHg 54%
    Arată mai mult